Location: Asheville, NC
(35.6000°N, 82.5500°W)
Time: 04:48:26
(UTC-05:00)

OTV 5 (USA 277) - Pass Details

Date: 11 January 2018
Orbit: 404 x 417 km, 43.0° (Epoch: 07 September)

Event Time Altitude Azimuth Distance (km) Brightness Sun altitude
Exits shadow 06:32:47 25° 275° (W) 843 ? -13.5°
Maximum altitude 06:34:19 48° 212° (SSW) 527 ? -13.2°
Drops below altitude 10° 06:37:29 10° 136° (SE) 1,444 ? -12.6°
Sets 06:39:36 0° 131° (SE) 2,301 ? -12.2°
